Location: Garbic
(43.6229°N, 0.9514°E)
Time: 13:42:15
(UTC+00:00)

Daily predictions for brighter satellites

Satellite Brightness Start Highest point End
(mag) Time Altitude Azimuth Time Altitude Azimuth Time Altitude Azimuth
BREEZE-M DEB 4.2 20:04:33 10° W 20:08:52 82° N 20:17:54 10° E
Okean-O 3.4 20:10:04 10° SE 20:14:03 36° ENE 20:18:03 10° N
Helios 1A Rocket 2.3 20:20:18 10° NNE 20:23:23 56° ESE 20:26:27 10° S
ADEOS 3.6 20:19:40 10° SSE 20:24:51 80° ENE 20:30:05 10° NNW
Cosmos 1758 3.1 20:21:50 10° N 20:25:33 88° W 20:29:16 10° S
SL-08 R/B 3.2 20:22:30 10° NNE 20:27:03 63° ESE 20:31:35 10° S
Cosmos 1655 Rocket 4.2 20:20:55 10° N 20:27:19 84° W 20:33:43 10° S
NOSS 2-3 (C) 2.9 20:24:38 10° SSW 20:28:06 85° SE 20:31:36 10° NE
SL-14 R/B 4.0 20:26:40 10° SSW 20:30:17 52° W 20:33:58 10° N
Cosmos 2344 3.9 20:23:23 10° S 20:31:06 43° ESE 20:37:47 10° NE
Cosmos 1500 Rocket 3.6 20:29:58 10° N 20:34:14 61° E 20:38:27 10° SSE
Cosmos 2285 Rocket 4.1 20:27:52 10° NNW 20:34:16 88° WSW 20:40:41 10° SSE
Cosmos 1703 3.3 20:31:57 10° SSE 20:34:54 39° E 20:37:53 10° NNE
Ariane Rocket 4.2 20:32:07 10° ESE 20:36:20 27° ENE 20:40:35 10° N
USA 276 2.7 20:35:43 10° S 20:37:15 18° SE 20:38:57 10° E
Spot 2 Rocket 3.5 20:33:16 10° SSE 20:38:19 78° ENE 20:43:26 10° N
ERS-1 Rocket 3.9 20:33:52 10° S 20:38:41 48° W 20:43:31 10° NNW
CZ-4B R/B 4.2 20:37:35 11° ESE 20:40:38 25° ENE 20:43:56 10° NNE
Cosmos 1538 Rocket 4.0 20:35:36 10° S 20:40:45 73° ESE 20:46:00 10° NNE
Iridium 4 Rocket 4.2 20:37:43 10° SSE 20:42:16 34° E 20:46:33 10° NNE
Cosmos 1263 4.4 20:38:44 10° S 20:42:37 78° E 20:45:52 10° N
Okean O Rocket 1.6 20:38:26 10° SSE 20:42:46 72° ENE 20:47:09 10° N
Terra 2.7 20:38:21 10° S 20:42:52 47° W 20:47:26 10° NNW
CZ-4B R/B 3.6 20:38:31 10° S 20:43:51 62° WSW 20:49:08 10° NNW
USA 59 Rocket 0.5 20:41:04 10° S 20:44:29 26° ESE 20:47:18 10° ENE
Cosmos 1833 Rocket 2.8 20:40:31 10° NNW 20:46:09 66° ENE 20:51:06 13° SE
NOSS 2-1 (D) 4.2 20:45:53 10° S 20:49:20 25° ESE 20:52:11 10° ENE
CZ-4B R/B 4.5 20:47:02 13° SE 20:51:08 34° ENE 20:55:49 10° N
Cosmos 1328 Rocket 4.4 20:53:52 15° SSE 20:56:52 32° E 21:00:45 10° NNE
Cosmos 1151 Rocket 3.6 20:52:51 10° SSW 20:57:07 60° W 21:01:24 10° N
Cosmos 1953 2.6 20:55:54 10° N 20:59:18 40° ENE 21:01:29 19° SE
S3M 4.4 20:54:09 12° SSE 20:59:28 43° E 21:05:14 10° NNE
Cosmos 1553 Rocket 4.1 20:54:19 10° S 21:00:41 84° W 21:06:59 10° N
GP-B 3.4 20:58:46 10° NNE 21:03:01 48° E 21:06:09 17° SSE
BREEZE-M R/B 3.2 21:01:39 10° WSW 21:05:11 83° SSE 21:11:58 10° ENE
CZ-2C R/B 4.2 21:05:29 11° E 21:06:19 13° ENE 21:07:36 10° NE
NOSS 2-1 (C) 3.8 21:05:18 10° S 21:09:05 32° ESE 21:12:07 10° ENE
Cosmos 2082 Rocket 3.8 21:04:45 10° N 21:09:12 23° NE 21:13:34 10° ESE
Cosmos 1709 Rocket 4.5 21:03:54 10° N 21:10:03 47° ENE 21:14:35 18° SE
Cosmos 2278 Rocket 2.7 21:06:56 12° S 21:11:45 39° ESE 21:16:58 10° NE
Cosmos 1408 Rocket 4.5 21:07:52 10° NNW 21:12:07 47° W 21:16:20 10° SSW
Cosmos 1666 Rocket 3.7 21:15:14 10° N 21:19:28 55° ENE 21:21:56 23° SSE
USA 238 DEB 3.4 21:14:54 10° SSW 21:20:52 71° ESE 21:27:27 10° NE
USA 238 3.4 21:15:08 10° SSW 21:21:06 70° ESE 21:27:40 10° NE
SPOT 3 Rocket 3.5 21:17:22 17° SSE 21:21:18 89° ENE 21:26:30 10° NNW
Lacrosse 5 rocket 3.8 21:20:14 10° W 21:23:04 21° NNW 21:25:51 10° NNE
Cosmos 1943 Rocket 2.2 21:17:55 10° SSW 21:23:30 65° ESE 21:29:05 10° NNE
SL-8 R/B 3.7 21:22:03 10° SW 21:26:38 52° SSE 21:31:13 10° ENE
Cosmos 1743 Rocket 4.1 21:23:05 10° NNW 21:27:20 56° W 21:30:49 15° S
Timation 1 Rocket 4.3 21:25:40 10° NNW 21:31:39 83° WSW 21:35:36 22° SSE
USA 245 3.1 21:35:12 28° SSW 21:36:29 51° WSW 21:39:05 10° NNW
Cosmos 1745 Rocket 4.1 21:31:05 10° N 21:37:24 85° W 21:42:08 19° S
Cosmos 1515 Rocket 4.3 21:36:36 27° SE 21:38:06 36° E 21:42:03 10° NNE
SL-12 R/B (Aux Motor) 4.4 21:39:19 10° WNW 21:41:55 72° SSW 21:44:03 27° ESE
USA 186 3.5 21:41:25 12° WSW 21:42:07 13° W 21:43:14 10° WNW
Okean 2 3.4 21:42:54 34° SSE 21:44:11 51° E 21:47:55 10° NNE
Cosmos 1680 Rocket 3.4 21:41:11 12° SSW 21:45:55 86° ESE 21:51:09 10° NNE
Cosmos 1624 Rocket 4.1 21:42:22 10° NNW 21:47:40 66° ENE 21:50:25 29° SE
Cosmos 1633 Rocket 3.0 21:44:54 10° N 21:49:18 84° W 21:51:28 30° S
Cosmos 1400 Rocket 3.6 21:49:08 10° N 21:52:26 31° ENE 21:53:10 28° E
Cosmos 2056 Rocket 3.4 21:51:36 10° NNW 21:56:44 81° ENE 21:59:06 32° SSE
Meteor 1-23 Rocket 4.2 21:54:49 18° SSW 21:59:02 81° W 22:04:38 10° N
Cosmos 1656 Rocket 4.5 21:59:36 28° SE 22:00:49 30° ESE 22:05:35 10° NE
USA 215 4.4 22:02:17 10° E 22:08:15 40° NNE 22:14:15 10° NW
USA 276 2.8 22:07:32 10° W 22:09:43 40° NNW 22:12:12 10° NE
CZ-4B R/B 4.5 22:12:15 18° SW 22:14:13 27° W 22:17:39 10° NW
NOSS 2-1 (E) 3.7 22:10:14 10° SW 22:14:17 56° NW 22:17:32 10° NNE
Ariane Rocket 4.0 22:12:03 20° SSW 22:15:01 39° W 22:19:46 10° NNW
Cosmos 2074 Rocket 4.4 22:09:56 10° N 22:15:55 48° ENE 22:18:40 30° SE
Okean O Rocket 4.3 22:18:12 10° WSW 22:19:26 11° W 22:20:39 10° WNW
NOSS 3-1 (C) 4.0 22:21:46 25° ESE 22:21:46 25° ESE 22:25:29 10° ENE
USA 308 4.2 22:26:25 17° NE 22:26:25 17° NE 22:27:29 10° NE
Helios 1B rocket 3.4 22:24:53 25° ENE 22:25:11 26° ENE 22:28:06 10° NNE
CZ-4B R/B 4.5 22:22:39 10° NNE 22:27:00 76° ESE 22:28:09 48° S
Lacrosse 4 Rocket 4.2 22:27:56 10° NNE 22:28:50 11° NE 22:29:45 10° NE
Cosmos 1470 Rocket 4.3 22:25:48 10° NNW 22:30:03 46° W 22:31:40 31° SW
USA 59 Rocket 1.9 22:30:10 10° W 22:32:57 21° NW 22:35:23 10° N
Cosmos 1441 Rocket 2.7 22:33:47 81° N 22:33:47 81° N 22:36:52 10° N
ATLAS 5 CENTAUR R/B 2.8 22:37:18 17° ENE 22:37:18 17° ENE 22:38:13 10° NE
Okean 3 3.3 22:34:53 54° SSW 22:35:44 79° W 22:39:45 10° N
CZ-2C R/B 3.9 22:36:44 22° W 22:36:44 22° W 22:38:43 10° NW
Cosmos 1933 Rocket 3.4 22:33:08 10° N 22:37:29 90° NE 22:38:23 56° S
Nadezhda 1 Rocket 4.4 22:36:03 34° SE 22:38:08 46° E 22:44:03 10° NNE
COSMOS 2455 4.5 22:38:34 17° ESE 22:38:37 17° ESE 22:42:22 10° ENE
BREEZE-M DEB (TANK) 4.4 22:40:29 10° WNW 22:40:53 15° W 22:40:53 15° W
Cosmos 1110 Rocket 3.9 22:38:41 10° NNW 22:43:53 87° ENE 22:45:24 47° SSE
Exosat Rocket 4.3 22:44:00 38° SSE 22:45:51 50° ESE 22:53:08 10° NNE
Cosmos 967 Rocket 4.5 22:50:17 36° S 22:52:58 67° ESE 22:59:24 10° NE
Cosmos 2082 Rocket 2.3 22:48:08 10° NNW 22:53:41 62° WSW 22:55:23 42° S
Cosmos 1452 Rocket 3.6 22:49:03 10° NNW 22:54:19 70° ENE 22:55:52 45° SE
SL-4 R/B 3.0 22:55:58 27° NE 22:55:58 27° NE 22:57:34 10° ENE
ACS3 Solar Sail 3.4 22:52:06 10° NE 22:55:30 16° E 22:56:47 15° ESE
Helios 1A 3.2 22:51:36 10° N 22:55:31 59° WNW 22:56:22 47° WSW
Cosmos 2278 Rocket 3.7 22:50:45 10° WSW 22:55:51 34° NW 23:00:58 10° N
Cosmos 614 Rocket 3.8 22:57:55 48° SSW 22:59:22 86° ESE 23:04:27 10° NNE
Cosmos 2184 Rocket 4.0 22:56:39 10° N 23:02:58 79° W 23:05:24 40° S
Cosmos 2154 Rocket 3.9 22:57:56 10° N 23:04:10 84° W 23:06:28 42° S
ARIANE 5 R/B 2.7 23:05:10 55° ESE 23:05:53 66° ENE 23:10:16 10° N
Cosmos 1943 Rocket 4.4 23:03:21 10° W 23:07:42 22° NW 23:12:04 10° N
Cosmos 1331 Rocket 4.1 23:03:01 10° NNW 23:08:06 61° WSW 23:09:16 48° SSW
SL-8 R/B 4.2 23:04:16 10° W 23:08:56 58° NNW 23:13:37 10° ENE
Cosmos 1869 Rocket 3.8 23:05:28 10° NNW 23:09:41 55° W 23:10:17 50° SW
CZ-2C R/B 3.7 23:07:25 10° NNE 23:12:09 84° WNW 23:13:09 56° SSW
ARGOS Delta rocket 4.3 23:08:21 10° N 23:13:30 62° WNW 23:15:12 39° SW
CZ-2C R/B 3.7 23:16:25 25° ESE 23:18:24 34° ENE 23:23:07 10° N
CZ-3B R/B 3.7 23:16:36 39° SSE 23:18:31 50° ESE 23:36:30 10° NE
CZ-2C R/B 3.5 23:14:00 10° NNE 23:19:05 44° E 23:19:49 41° ESE
SL-12 R/B(2) 4.2 23:15:35 26° SSW 23:20:35 85° ESE 23:30:07 10° NE
Cosmos 1733 Rocket 2.9 23:17:24 10° N 23:21:43 76° E 23:22:03 70° SE
ALOS 2 2.4 23:21:23 69° SSE 23:21:54 83° ENE 23:26:18 10° NNW
Cosmos 1707 Rocket 3.5 23:22:47 66° ESE 23:23:04 68° E 23:27:28 10° NNE
Cosmos 2228 Rocket 3.4 23:26:00 49° ESE 23:26:11 49° E 23:30:26 10° NNE
Cosmos 2341 Rocket 4.5 23:20:35 10° N 23:26:37 50° ENE 23:28:53 34° SE
IRIDIUM 104 4.4 23:26:18 10° N 23:31:32 69° E 23:32:38 53° SE
USA 290 3.7 23:28:46 10° N 23:31:10 32° NE 23:31:10 32° NE
Cosmos 1356 Rocket 4.4 23:28:16 10° N 23:31:57 33° ENE 23:32:18 32° E
Cosmos 2369 Rocket 2.1 23:32:23 53° S 23:33:43 77° ESE 23:39:20 10° NNE
Cosmos 1862 Rocket 3.3 23:34:20 74° SW 23:34:37 81° W 23:38:57 10° N
ARIANE 6 FM1 Upper Stage 3.3 23:34:00 37° W 23:35:15 52° NW 23:39:17 10° NNE
COSMOS 2406 3.3 23:30:29 10° NNW 23:36:06 61° WSW 23:37:19 49° SSW
Cosmos 2297 3.7 23:36:40 52° S 23:38:01 72° ESE 23:43:45 10° NNE
Cosmos 1315 Rocket 2.9 23:34:28 10° N 23:38:04 60° ENE 23:38:04 60° ENE
IRIDIUM 114 4.2 23:35:27 10° N 23:40:42 84° E 23:41:46 57° SSE
Okean 1-7 3.3 23:48:24 51° W 23:48:46 53° WNW 23:52:55 10° N
Cosmos 972 Rocket 4.1 23:43:25 10° NNW 23:48:46 61° WSW 23:49:35 53° SW
IRIDIUM 103 4.3 23:44:36 10° N 23:49:51 81° W 23:50:55 57° SSW
USA 215 3.1 23:47:35 32° SE 23:50:55 83° SW 23:57:29 10° NW
Cosmos 1302 Rocket 4.1 23:47:49 10° NNW 23:53:01 59° WSW 23:53:49 52° SW
